Date String (YYYY-MM-DD hh:mm:ss) UTC,Instrument flags,Ambient pressure (hPa),Sample flow (lpm),Bypass flow (lpm),Sample temperature (°C),Ambient temperature (°C),ASC tube jacket temperature (°C),LED temperature (°C),Box temperature (°C),Sample RH (%),Span deviation,Mass concentration (μg/m³),Mass concentration (μg/m³),Mass concentration (μg/m³)
DateTimeUTC,F1_M11,P_M11,Q1_M11,Q2_M11,T1_M11,T2_M11,T3_M11,T4_M11,T5_M11,U1_M11,ZSPAN_M11,X0_M11,X2_M11,X1_M11
2022-10-30 18:00:00,,0828.0,5.01,0.00,26.4,25.3,00.0,35.0,28.3,08.3,0000.0,0009.78,0004.74,0004.37
2022-10-30 18:01:00,,0828.0,4.99,0.00,26.4,25.3,00.0,35.1,28.3,08.2,0000.0,0010.20,0004.79,0004.43
2022-10-30 18:02:00,,0828.0,5.00,0.00,26.4,25.3,00.0,35.1,28.3,08.3,0000.0,0010.40,0004.80,0004.45
2022-10-30 18:03:00,,0828.0,5.00,0.00,26.4,25.3,00.0,35.1,28.4,08.3,0000.0,0010.35,0004.78,0004.44
2022-10-30 18:04:00,,0827.9,4.99,0.00,26.4,25.3,00.0,35.1,28.3,08.3,0000.0,0010.46,0004.74,0004.40
2022-10-30 18:05:00,,0828.0,5.01,0.00,26.5,25.4,00.0,35.1,28.4,08.3,0000.0,0009.98,0004.72,0004.39
2022-10-30 18:06:00,,0827.9,4.99,0.00,26.5,25.4,00.0,35.1,28.4,08.5,0000.0,0009.63,0004.69,0004.40
2022-10-30 18:07:00,,0827.9,5.02,0.00,26.5,25.4,00.0,35.2,28.4,08.7,0000.0,0009.59,0004.65,0004.36
2022-10-30 18:08:00,,0827.9,4.99,0.00,26.5,25.4,00.0,35.2,28.4,08.7,0000.0,0009.60,0004.59,0004.30
2022-10-30 18:09:00,,0827.9,5.01,0.00,26.6,25.4,00.0,35.2,28.5,08.8,0000.0,0009.90,0004.48,0004.22
2022-10-30 18:10:00,,0827.8,4.98,0.00,26.6,25.5,00.0,35.2,28.5,08.7,0000.0,0009.80,0004.42,0004.14
2022-10-30 18:11:00,,0827.8,5.01,0.00,26.6,25.5,00.0,35.3,28.6,08.6,0000.0,0009.67,0004.33,0004.07
2022-10-30 18:12:00,,0827.8,4.99,0.00,26.6,25.5,00.0,35.3,28.6,08.5,0000.0,0009.29,0004.27,0004.02
2022-10-30 18:13:00,,0827.7,5.01,0.00,26.6,25.5,00.0,35.3,28.6,08.6,0000.0,0008.65,0004.25,0003.99
2022-10-30 18:14:00,,0827.7,4.99,0.00,26.6,25.5,00.0,35.3,28.6,08.5,0000.0,0009.63,0004.27,0003.97
2022-10-30 18:15:00,,0827.7,5.00,0.00,26.7,25.5,00.0,35.3,28.6,08.4,0000.0,0009.69,0004.24,0003.95
2022-10-30 18:16:00,,0827.7,5.01,0.00,26.7,25.6,00.0,35.4,28.6,08.4,0000.0,0009.75,0004.24,0003.94
2022-10-30 18:17:00,,0827.7,4.98,0.00,26.7,25.6,00.0,35.4,28.7,08.4,0000.0,0009.75,0004.24,0003.93
2022-10-30 18:18:00,,0827.7,5.01,0.00,26.7,25.6,00.0,35.4,28.7,08.5,0000.0,0009.93,0004.26,0003.95
2022-10-30 18:19:00,,0827.6,5.00,0.00,26.7,25.6,00.0,35.4,28.7,08.5,0000.0,0009.85,0004.28,0003.99
2022-10-30 18:20:00,,0827.6,5.00,0.00,26.8,25.6,00.0,35.4,28.7,08.4,0000.0,0009.85,0004.33,0004.01
2022-10-30 18:21:00,,0827.6,5.01,0.00,26.8,25.6,00.0,35.4,28.7,08.4,0000.0,0009.90,0004.36,0004.04
2022-10-30 18:22:00,,0827.5,4.99,0.00,26.8,25.6,00.0,35.5,28.7,08.4,0000.0,0009.53,0004.39,0004.05
2022-10-30 18:23:00,,0827.6,5.01,0.00,26.8,25.7,00.0,35.5,28.7,08.4,0000.0,0009.58,0004.44,0004.07
2022-10-30 18:24:00,,0827.6,5.01,0.00,26.8,25.7,00.0,35.5,28.8,08.5,0000.0,0009.48,0004.46,0004.07
2022-10-30 18:25:00,,0827.5,4.99,0.00,26.8,25.7,00.0,35.5,28.8,08.4,0000.0,0008.66,0004.46,0004.09
2022-10-30 18:26:00,,0827.5,5.02,0.00,26.9,25.7,00.0,35.5,28.8,08.4,0000.0,0008.46,0004.49,0004.10
2022-10-30 18:27:00,,0827.5,4.99,0.00,26.9,25.7,00.0,35.5,28.8,08.4,0000.0,0008.45,0004.50,0004.11
2022-10-30 18:28:00,,0827.6,5.01,0.00,26.9,25.7,00.0,35.6,28.9,08.3,0000.0,0008.43,0004.51,0004.11
2022-10-30 18:29:00,,0827.6,4.98,0.00,26.9,25.7,00.0,35.6,28.8,08.3,0000.0,0008.61,0004.53,0004.11
2022-10-30 18:30:00,,0827.5,5.01,0.00,26.9,25.7,00.0,35.6,28.9,08.2,0000.0,0009.12,0004.53,0004.10
2022-10-30 18:31:00,,0827.4,4.99,0.00,26.9,25.7,00.0,35.6,28.8,08.2,0000.0,0008.93,0004.51,0004.10
2022-10-30 18:32:00,,0827.4,5.01,0.00,26.9,25.7,00.0,35.6,28.9,08.3,0000.0,0008.93,0004.49,0004.09
2022-10-30 18:33:00,,0827.4,5.00,0.00,26.9,25.8,00.0,35.6,28.9,08.1,0000.0,0008.79,0004.47,0004.07
2022-10-30 18:34:00,,0827.4,4.99,0.00,27.0,25.8,00.0,35.7,28.9,08.2,0000.0,0009.14,0004.46,0004.07
2022-10-30 18:35:00,,0827.4,5.01,0.00,27.0,25.8,00.0,35.7,28.9,08.2,0000.0,0009.26,0004.44,0004.06
2022-10-30 18:36:00,,0827.4,4.97,0.00,27.0,25.8,00.0,35.7,28.9,08.2,0000.0,0009.02,0004.42,0004.05
2022-10-30 18:37:00,,0827.2,5.01,0.00,27.0,25.8,00.0,35.7,28.9,08.1,0000.0,0009.03,0004.40,0004.04
2022-10-30 18:38:00,,0827.4,4.99,0.00,27.0,25.8,00.0,35.7,29.0,08.1,0000.0,0009.31,0004.44,0004.03
2022-10-30 18:39:00,,0827.2,5.01,0.00,27.0,25.9,00.0,35.7,29.0,08.1,0000.0,0009.62,0004.45,0004.03
2022-10-30 18:40:00,,0827.2,5.01,0.00,27.0,25.9,00.0,35.7,29.0,08.2,0000.0,0009.63,0004.42,0004.02
2022-10-30 18:41:00,,0827.2,4.98,0.00,27.1,25.9,00.0,35.7,29.0,08.2,0000.0,0009.65,0004.43,0004.03
2022-10-30 18:42:00,,0827.2,5.02,0.00,27.1,25.9,00.0,35.8,29.0,08.3,0000.0,0010.17,0004.45,0004.05
2022-10-30 18:43:00,,0827.1,5.00,0.00,27.1,25.9,00.0,35.8,29.0,08.2,0000.0,0010.28,0004.48,0004.05
2022-10-30 18:44:00,,0827.2,4.99,0.00,27.1,26.0,00.0,35.8,29.0,08.2,0000.0,0010.64,0004.50,0004.06
2022-10-30 18:45:00,,0827.3,5.02,0.00,27.1,26.0,00.0,35.8,29.0,08.3,0000.0,0010.30,0004.46,0004.04
2022-10-30 18:46:00,,0827.5,5.01,0.00,27.1,26.0,00.0,35.8,29.0,08.2,0000.0,0010.20,0004.45,0004.02
2022-10-30 18:47:00,,0827.5,4.98,0.00,27.2,26.0,00.0,35.8,29.1,08.2,0000.0,0010.12,0004.42,0004.00
2022-10-30 18:48:00,,0827.3,5.01,0.00,27.2,26.0,00.0,35.9,29.1,08.2,0000.0,0010.23,0004.39,0003.97
2022-10-30 18:49:00,,0827.5,5.01,0.00,27.2,26.1,00.0,35.9,29.1,08.1,0000.0,0009.93,0004.32,0003.94
2022-10-30 18:50:00,,0827.2,4.98,0.00,27.2,26.1,00.0,35.9,29.1,07.9,0000.0,0009.52,0004.24,0003.90
2022-10-30 18:51:00,,0827.1,5.01,0.00,27.2,26.1,00.0,35.9,29.2,08.1,0000.0,0009.21,0004.21,0003.87
2022-10-30 18:52:00,,0827.1,5.01,0.00,27.2,26.1,00.0,35.9,29.2,08.1,0000.0,0008.86,0004.16,0003.82
2022-10-30 18:53:00,,0827.0,4.98,0.00,27.3,26.1,00.0,35.9,29.2,08.0,0000.0,0008.43,0004.11,0003.77
2022-10-30 18:54:00,,0827.1,5.00,0.00,27.3,26.1,00.0,36.0,29.2,07.9,0000.0,0008.31,0004.06,0003.73
2022-10-30 18:55:00,,0827.0,5.01,0.00,27.3,26.1,00.0,36.0,29.2,07.9,0000.0,0008.05,0004.00,0003.68
2022-10-30 18:56:00,,0827.0,5.01,0.00,27.3,26.1,00.0,36.0,29.3,08.0,0000.0,0007.82,0003.95,0003.64
2022-10-30 18:57:00,,0827.1,5.00,0.00,27.3,26.1,00.0,36.0,29.3,07.8,0000.0,0007.73,0003.92,0003.61
2022-10-30 18:58:00,,0827.1,5.00,0.00,27.3,26.2,00.0,36.0,29.3,07.8,0000.0,0007.67,0003.89,0003.60
2022-10-30 18:59:00,,0827.0,5.01,0.00,27.3,26.2,00.0,36.0,29.3,07.8,0000.0,0007.96,0003.87,0003.58
